Honolulu, HI

2:58 PM HST on November 18, 2018 (GMT -1000)
Honolulu International

Weather History for PHNL - February, 2018

Change the Weather History Date:

Wednesday, February 14, 2018

  Actual Average Record
Temperature  
Mean Temperature 74 °F 73 °F  
Max Temperature 76 °F 80 °F 86 °F (1978)
Min Temperature 72 °F 66 °F 57 °F (1993)
Degree Days  
Heating Degree Days 0 0  
Month to date heating degree days 0 0  
Since 1 July heating degree days 0 0  
Cooling Degree Days 9 8  
Month to date cooling degree days 141 112  
Year to date cooling degree days 513 366  
Growing Degree Days 24 (Base 50)    
Moisture  
Dew Point 69 °F    
Average Humidity 86    
Maximum Humidity 91    
Minimum Humidity 79    
Precipitation  
Precipitation 1.46 in 0.07 in 2.85 in (1994)
Month to date precipitation 2.80 0.91  
Year to date precipitation 2.86 3.22  
Sea Level Pressure  
Sea Level Pressure 29.92 in    
Wind  
Wind Speed 7 mph (WSW)    
Max Wind Speed 20 mph    
Max Gust Speed 32 mph    
Visibility 6 miles    
Events Rain , Thunderstorm    
T = Trace of Precipitation, MM = Missing Value Source: NWS Daily Summary

Daily Weather History Graph

Daily Weather History Graph

Search for Another Location

Airport or City:

Astronomy

Feb. 14, 2018 Rise Set
Actual Time 7:02 AM HST 6:29 PM HST
Civil Twilight 6:39 AM HST 6:52 PM HST
Nautical Twilight 6:13 AM HST 7:18 PM HST
Astronomical Twilight 5:47 AM HST 7:44 PM HST
Moon 6:20 AM HST (2/14) 5:49 PM HST (2/14)
Length of Visible Light 12h 12m
Length of Day
11h 26m
Waning Crescent, 1% of the Moon is Illuminated
Feb 14
Waning Crescent
Feb 15
New
Feb 22
First Quarter
Mar 1
Full
Mar 9
Last Quarter

Hourly Weather History & Observations

Time (HST) Temp. Dew Point Humidity Pressure Visibility Wind Dir Wind Speed Gust Speed Precip Events Conditions
12:36 AM 75.0 °F 70.0 °F 84% 29.95 in 10.0 mi West 8.1 mph - 0.02 in   Mostly Cloudy
12:53 AM 75.0 °F 70.0 °F 84% 29.94 in 10.0 mi West 8.1 mph - 0.02 in   Mostly Cloudy
1:18 AM 73.9 °F 70.0 °F 87% 29.94 in 10.0 mi West 5.8 mph - N/A   Overcast
1:31 AM 73.9 °F 71.1 °F 91% 29.93 in 4.0 mi West 3.5 mph - 0.03 in Rain Rain
1:53 AM 73.9 °F 70.0 °F 87% 29.93 in 8.0 mi SW 4.6 mph - 0.08 in Rain Light Rain
2:12 AM 73.9 °F 70.0 °F 87% 29.93 in 9.0 mi Calm Calm - 0.00 in Rain Light Rain
2:23 AM 73.9 °F 70.0 °F 87% 29.93 in 8.0 mi Calm Calm - 0.01 in Rain Light Rain
2:53 AM 73.9 °F 69.1 °F 85% 29.92 in 3.0 mi Calm Calm - 0.13 in Rain Light Rain
3:00 AM 73.9 °F 69.1 °F 85% 29.92 in 9.0 mi Variable 4.6 mph - 0.01 in Rain Light Rain
3:49 AM 73.4 °F 69.8 °F 88% 29.92 in 10.0 mi SW 9.2 mph - 0.01 in   Overcast
3:53 AM 73.9 °F 70.0 °F 87% 29.91 in 10.0 mi SW 9.2 mph 16.1 mph 0.01 in   Overcast
4:11 AM 73.9 °F 70.0 °F 87% 29.91 in 10.0 mi WSW 5.8 mph - 0.00 in   Overcast
4:53 AM 73.9 °F 69.1 °F 85% 29.91 in 10.0 mi SSW 10.4 mph - 0.00 in Rain Light Rain
5:03 AM 73.9 °F 69.1 °F 85% 29.91 in 2.0 mi WSW 19.6 mph 32.2 mph 0.03 in Rain Heavy Rain
5:06 AM 73.0 °F 69.1 °F 87% 29.91 in 5.0 mi WSW 10.4 mph 32.2 mph 0.13 in Rain Heavy Rain
5:34 AM 73.9 °F 70.0 °F 87% 29.92 in 10.0 mi WSW 6.9 mph - 0.23 in   Overcast
5:53 AM 73.9 °F 71.1 °F 91% 29.92 in 5.0 mi West 6.9 mph - 0.25 in Rain Light Rain
6:21 AM 73.0 °F 70.0 °F 90% 29.93 in 2.0 mi WSW 10.4 mph - 0.04 in Rain Light Rain
6:33 AM 73.0 °F 70.0 °F 90% 29.93 in 6.0 mi SW 11.5 mph - 0.23 in Rain Light Rain
6:53 AM 73.0 °F 69.1 °F 87% 29.94 in 5.0 mi WSW 12.7 mph 17.3 mph 0.23 in Rain Light Rain
7:53 AM 72.0 °F 68.0 °F 87% 29.94 in 4.0 mi West 11.5 mph - 0.02 in Rain Rain
8:14 AM 73.4 °F 68.0 °F 83% 29.95 in 2.0 mi WSW 13.8 mph - N/A Rain Heavy Rain
8:21 AM 72.0 °F 68.0 °F 87% 29.95 in 4.0 mi West 10.4 mph - 0.12 in Rain Rain
8:32 AM 72.0 °F 68.0 °F 87% 29.95 in 2.0 mi West 11.5 mph - 0.14 in Rain Heavy Rain
8:35 AM 72.0 °F 68.0 °F 87% 29.95 in 3.0 mi West 12.7 mph - 0.19 in Rain Heavy Rain
8:53 AM 72.0 °F 69.1 °F 91% 29.96 in 4.0 mi West 8.1 mph - 0.24 in Rain Light Rain
9:03 AM 72.0 °F 69.1 °F 91% 29.96 in 8.0 mi West 9.2 mph - 0.01 in Rain Light Rain
9:53 AM 73.0 °F 69.1 °F 87% 29.97 in 6.0 mi WSW 11.5 mph - 0.02 in Rain Light Rain
10:53 AM 73.0 °F 69.1 °F 87% 29.95 in 10.0 mi West 8.1 mph - 0.00 in Thunderstorm Thunderstorm
11:09 AM 73.0 °F 69.1 °F 87% 29.96 in 2.0 mi West 13.8 mph 18.4 mph 0.06 in Rain Rain
11:14 AM 73.0 °F 69.1 °F 87% 29.96 in 1.2 mi WSW 17.3 mph - 0.10 in Rain Heavy Rain
11:32 AM 73.0 °F 70.0 °F 90% 29.95 in 2.0 mi West 9.2 mph - 0.29 in Rain Rain
11:39 AM 73.0 °F 69.1 °F 87% 29.95 in 5.0 mi WSW 10.4 mph - 0.29 in Rain Light Rain
11:41 AM 73.0 °F 69.1 °F 87% 29.95 in 2.0 mi West 8.1 mph - 0.29 in Rain Light Rain
11:53 AM 73.0 °F 70.0 °F 90% 29.95 in 2.0 mi West 4.6 mph - 0.32 in Rain Heavy Rain
12:03 PM 73.0 °F 70.0 °F 90% 29.94 in 3.0 mi SW 4.6 mph - 0.04 in Rain Light Rain
12:05 PM 73.0 °F 70.0 °F 90% 29.94 in 2.0 mi SSW 4.6 mph - 0.04 in Rain Light Rain
12:22 PM 73.0 °F 70.0 °F 90% 29.93 in 1.8 mi WSW 5.8 mph - 0.08 in Rain Heavy Rain
12:53 PM 73.0 °F 69.1 °F 87% 29.93 in 1.8 mi WSW 12.7 mph - 0.12 in Rain Light Rain
1:15 PM 73.0 °F 69.1 °F 87% 29.91 in 3.0 mi WSW 11.5 mph - 0.01 in Rain Light Rain
1:37 PM 73.0 °F 69.1 °F 87% 29.90 in 2.0 mi WSW 9.2 mph - 0.01 in Rain Light Rain
1:53 PM 73.0 °F 70.0 °F 90% 29.90 in 10.0 mi WSW 3.5 mph - 0.02 in Rain Light Rain
2:53 PM 75.0 °F 68.0 °F 79% 29.89 in 10.0 mi WSW 11.5 mph - 0.00 in Rain Light Rain
3:53 PM 73.0 °F 69.1 °F 87% 29.88 in 10.0 mi South 4.6 mph - 0.00 in Rain Light Rain
4:53 PM 73.9 °F 68.0 °F 82% 29.88 in 10.0 mi SSE 4.6 mph - 0.00 in   Overcast
5:53 PM 73.9 °F 68.0 °F 82% 29.89 in 7.0 mi SSE 5.8 mph - 0.00 in Rain Light Rain
6:37 PM 73.0 °F 68.0 °F 84% 29.89 in 10.0 mi ESE 5.8 mph - 0.00 in   Overcast
6:53 PM 73.0 °F 68.0 °F 84% 29.89 in 10.0 mi ESE 6.9 mph - 0.00 in   Overcast
7:53 PM 73.0 °F 69.1 °F 87% 29.89 in 10.0 mi SE 6.9 mph - 0.00 in   Mostly Cloudy
8:53 PM 73.9 °F 68.0 °F 82% 29.90 in 10.0 mi West 3.5 mph - N/A   Mostly Cloudy
9:14 PM 73.0 °F 68.0 °F 84% 29.90 in 10.0 mi West 3.5 mph - N/A   Mostly Cloudy
9:53 PM 73.0 °F 69.1 °F 87% 29.90 in 10.0 mi SW 3.5 mph - N/A   Mostly Cloudy
10:53 PM 73.9 °F 66.9 °F 79% 29.89 in 10.0 mi Calm Calm - 0.00 in Rain Light Rain
11:53 PM 73.9 °F 66.9 °F 79% 29.89 in 10.0 mi West 4.6 mph - 0.00 in   Overcast